Temperature
24 24 23 23 21 21 24 26 27 27 27 27 27 26 25 24 23 21 21 21 22 21 21 20 20 20 20 20 20 20 19 19 19 19 19 19 19 19 19 19 19 18 18 18 18 18 18 18 18
24 24 23 23 21 22 24 26 27 27 27 27 26 25 24 23 22 21 20 21 22 22 21 20 20 20 20 20 20 19 19 19 19 19 19 19 19 19 19 19 18 18 18 18 18 18 18 18 18
24 24 23 20 21 22 25 27 27 28 28 27 26 26 24 23 21 21 22 22 22 22 21 21 20 20 20 20 19 19 19 19 19 19 19 19 19 19 18 18 18 18 18 18 18 18 18 18 17
24 24 23 21 23 24 26 26 27 27 28 27 26 25 24 23 23 22 22 22 22 21 21 21 20 20 20 20 19 19 19 19 19 19 19 19 18 18 18 18 18 18 18 18 18 18 18 17 17
24 24 21 21 23 26 27 28 28 27 27 26 25 23 23 23 24 23 22 22 22 21 21 21 20 20 20 19 19 19 19 19 19 19 18 18 18 18 18 18 18 18 18 18 18 18 18 17 17
25 22 21 22 24 27 28 28 28 27 26 25 24 23 22 22 23 22 22 22 22 22 21 20 20 20 19 19 19 19 19 19 19 19 18 18 18 18 18 18 18 18 18 18 18 18 18 17 17
24 21 22 23 24 26 28 29 28 26 26 25 25 22 22 21 22 22 22 22 22 21 21 21 20 20 19 19 19 19 19 19 19 18 18 18 18 18 18 18 18 18 18 18 18 18 18 17 17
26 21 23 23 25 26 28 29 28 27 26 26 25 23 22 21 21 21 21 21 21 21 21 21 20 20 19 19 19 19 19 19 19 18 18 18 18 18 18 18 18 18 18 18 18 18 18 17 17
27 22 22 24 26 27 29 28 28 27 26 25 25 24 23 22 21 21 20 20 20 20 21 20 20 20 20 19 19 19 19 19 18 18 18 18 18 18 18 18 18 18 18 18 18 18 18 17 17
26 22 24 26 28 28 29 29 28 27 25 24 24 24 23 22 21 21 20 20 20 20 20 20 20 20 19 19 19 19 19 18 18 18 18 18 18 18 18 18 18 18 18 18 18 18 18 17 17
26 24 26 28 30 30 29 29 28 27 25 24 24 24 23 22 21 21 21 21 21 21 20 20 20 20 20 19 19 19 19 18 18 18 18 18 18 18 18 18 18 18 18 18 18 18 18 18 17
27 27 28 29 30 30 29 29 28 28 27 27 26 25 23 22 22 21 21 21 20 20 20 20 20 20 20 19 19 19 19 19 18 18 18 18 18 18 18 18 18 18 18 18 18 18 18 18 18
27 27 29 30 30 30 30 29 28 28 27 26 25 24 23 22 22 22 21 21 21 20 20 20 19 19 19 19 19 19 19 19 18 18 18 18 18 18 18 18 18 18 18 18 18 18 18 18 17
28 28 29 30 30 30 29 28 27 27 26 25 24 23 23 22 22 22 21 21 20 20 20 19 19 19 19 19 19 19 18 18 18 18 18 18 18 18 18 18 18 18 18 17 17 18 18 18 17
29 27 27 29 29 29 29 27 26 26 25 24 23 23 23 22 22 22 21 21 20 20 20 19 19 19 19 19 19 18 18 18 18 18 18 18 18 18 18 18 18 18 17 17 17 17 17 17 17
26 26 26 27 29 29 28 26 26 26 25 23 23 22 22 22 22 22 22 21 21 20 19 19 19 19 19 18 18 18 18 18 18 18 18 18 18 18 18 18 18 17 17 17 17 17 17 17 17
24 24 25 27 29 29 27 26 26 26 25 24 23 23 22 22 22 22 21 21 21 20 20 19 19 18 18 18 18 18 18 18 18 18 18 18 18 18 18 18 18 17 17 17 17 17 17 17 17
23 25 26 27 28 28 27 26 26 26 25 24 23 23 22 22 22 22 21 21 20 20 19 19 19 18 18 18 18 18 18 18 18 18 18 18 18 18 18 18 17 17 17 17 17 17 17 17 17
25 25 25 27 28 28 27 26 25 25 25 24 23 22 22 22 22 22 21 21 20 20 19 19 19 19 18 18 18 18 18 18 18 18 18 18 18 18 18 18 17 17 17 17 17 17 17 17 17
25 25 26 27 28 28 26 26 25 25 24 24 23 22 21 21 21 21 21 20 20 20 19 19 19 19 19 19 18 18 18 18 18 18 18 18 18 18 18 18 18 17 17 17 17 17 17 17 17
26 26 26 27 27 26 26 24 24 24 24 23 23 22 22 21 21 20 20 20 20 19 19 19 19 19 18 18 18 18 18 18 18 18 18 17 18 18 18 18 17 17 17 17 17 17 17 17 17
25 27 28 28 26 24 25 23 23 23 22 23 22 22 21 21 21 21 20 20 20 19 19 19 19 18 18 18 18 18 18 18 18 18 18 17 17 17 17 17 17 17 17 17 17 17 17 17 17
26 28 28 27 25 23 23 23 22 22 22 22 22 22 22 21 21 21 20 20 20 19 19 19 19 18 18 18 18 18 18 18 18 18 17 17 17 17 17 17 17 17 17 17 17 17 17 17 17
28 27 25 22 21 22 22 22 22 21 22 22 22 22 22 21 21 21 20 20 20 19 19 19 19 18 18 18 18 18 18 18 18 17 17 17 17 17 17 17 17 17 17 17 17 17 17 17 17
27 23 21 22 20 21 22 22 21 22 23 23 22 22 21 21 21 20 20 20 19 19 19 19 18 18 18 18 18 18 18 18 18 18 18 18 17 17 17 17 17 17 17 17 17 17 17 17 17
25 22 21 22 21 21 22 22 22 23 24 24 23 22 21 21 21 21 20 20 20 19 19 19 18 18 18 18 18 18 18 18 18 18 18 18 18 18 17 17 17 17 17 17 17 17 17 17 17
26 23 21 20 21 21 21 22 23 23 23 22 22 21 21 21 21 21 21 20 20 19 19 19 18 18 18 18 18 18 18 18 18 17 17 17 17 17 17 17 17 17 17 17 17 17 17 17 17
25 24 20 20 21 21 22 22 21 22 21 21 21 21 21 21 21 21 21 20 20 19 19 19 18 18 18 18 18 18 18 18 17 17 17 17 17 17 17 17 17 17 17 17 17 17 17 17 16
26 25 21 19 19 20 21 21 22 21 21 21 21 21 21 21 21 21 21 20 20 19 19 19 18 18 18 18 18 18 17 17 17 17 17 17 17 17 17 17 17 17 17 17 17 16 16 16 16
25 24 21 21 21 19 20 21 23 22 21 21 21 21 21 21 21 21 21 20 20 19 19 19 18 18 18 18 18 17 17 17 17 17 17 17 17 17 17 17 17 17 16 16 16 16 16 16 16
Wind_Speed
7 4 2 1 4 5 3 3 7 10 7 8 11 11 9 6 5 6 6 16 19 16 17 20 21 21 21 20 20 19 19 18 18 18 18 18 17 17 17 17 16 16 16 16 16 16 17 17 17
3 2 1 4 5 4 2 4 9 10 10 12 12 12 9 8 9 10 8 16 19 17 18 19 22 22 21 20 20 19 19 18 18 17 17 17 16 16 16 16 16 16 16 16 16 16 16 16 16
2 0 3 4 2 1 0 4 8 10 11 10 7 7 6 7 10 7 11 19 17 14 17 21 23 22 22 21 20 19 18 18 17 17 16 16 16 15 16 16 15 15 16 16 15 15 15 14 14
1 3 4 4 2 3 3 2 6 8 8 8 8 7 5 5 8 13 20 20 18 13 17 21 23 22 21 21 20 19 18 17 17 16 16 15 15 15 15 15 15 15 15 15 14 14 14 13 13
3 4 5 3 3 2 2 4 6 8 6 7 9 7 4 4 18 22 20 19 19 14 15 20 22 22 21 20 20 19 18 17 16 16 15 15 15 15 15 15 15 15 14 14 13 13 12 12 12
3 4 3 3 4 3 0 6 10 11 10 9 9 7 4 9 19 20 19 17 17 16 14 18 22 21 21 20 19 18 18 17 16 16 15 15 14 14 14 14 14 14 14 13 12 12 11 10 10
3 3 2 3 3 3 1 6 10 9 9 7 8 7 5 9 15 18 17 16 15 15 13 14 18 19 20 20 19 18 18 17 16 15 15 14 14 14 14 14 14 13 13 12 11 11 10 9 8
5 4 1 2 2 3 3 4 7 8 7 8 7 9 8 12 15 16 16 15 14 13 11 10 13 15 16 17 19 18 17 16 16 15 15 14 14 14 14 13 13 13 12 11 10 9 9 7 7
4 3 3 5 4 4 3 5 3 5 8 4 4 6 12 18 19 18 16 13 12 13 10 10 10 12 14 15 17 17 17 16 16 15 15 13 12 12 12 12 13 12 11 10 9 8 7 6 5
5 4 8 7 5 4 3 6 6 5 7 5 6 9 17 19 19 19 19 17 15 14 12 10 10 10 12 13 13 13 13 13 13 12 13 12 11 10 10 12 12 11 10 9 8 6 5 4 5
5 7 7 8 7 4 1 3 5 8 5 8 13 18 18 17 17 18 18 17 16 15 14 12 12 11 10 8 11 9 10 10 10 12 12 11 10 8 9 8 8 9 9 6 6 4 3 3 4
4 8 8 7 6 2 2 3 4 5 8 12 18 20 18 17 16 18 18 16 15 15 14 13 11 10 9 10 9 8 8 8 8 10 11 10 7 7 6 5 6 6 6 5 4 3 3 2 3
5 7 8 7 5 3 1 2 4 4 9 15 17 16 15 15 14 13 15 15 15 15 14 13 12 11 9 8 7 8 7 8 9 10 11 11 7 5 6 5 5 5 5 5 4 3 3 2 3
6 7 8 5 5 1 3 1 4 5 13 17 18 14 12 12 12 12 14 14 14 14 14 12 12 11 10 8 6 7 8 9 10 9 11 12 10 8 6 4 5 5 6 7 6 5 4 3 3
6 7 9 6 4 2 4 3 3 10 15 15 16 14 12 10 11 13 15 15 14 14 13 13 12 11 11 10 8 8 9 10 8 9 12 12 12 11 8 5 4 5 7 7 5 4 3 2 2
7 6 5 8 4 4 5 3 4 11 16 14 13 13 12 10 10 11 13 13 13 13 13 14 13 11 10 8 6 6 8 9 8 9 10 12 13 12 8 5 4 6 6 5 3 3 2 2 2
5 4 7 10 6 3 5 5 7 10 14 13 12 12 13 10 9 10 12 13 13 14 14 12 11 11 10 8 6 6 7 7 8 9 9 10 12 12 9 5 4 6 4 3 3 3 3 2 2
5 5 7 8 6 2 3 5 6 10 14 14 12 11 11 11 10 11 11 11 12 12 12 12 11 11 9 7 5 4 4 4 6 7 9 11 11 11 9 5 5 6 3 3 3 3 2 2 3
7 10 12 11 6 0 3 4 6 8 11 12 11 11 10 9 8 10 11 12 12 11 11 11 11 10 9 6 5 5 5 5 5 6 9 11 11 10 8 5 5 4 4 4 5 3 3 2 2
11 11 10 8 6 1 3 2 3 6 10 12 14 14 12 9 9 9 10 10 11 11 11 10 10 11 9 7 5 5 5 5 5 4 6 10 10 10 9 6 4 4 4 4 4 3 3 1 2
11 8 7 6 5 5 4 5 3 1 4 7 10 12 13 14 14 12 11 10 10 11 12 11 11 11 10 8 5 5 4 3 3 4 4 6 9 9 8 8 5 4 5 4 4 4 5 3 1
9 10 6 4 2 3 2 1 6 2 2 6 9 10 12 12 12 12 11 11 11 11 10 10 10 10 9 9 8 8 7 6 5 5 4 5 7 7 8 8 6 5 4 4 4 4 4 4 2
10 8 3 2 1 3 4 2 6 1 2 6 9 11 12 12 13 12 11 11 10 10 10 9 10 9 8 8 9 8 6 5 4 4 6 5 4 5 7 7 6 5 4 4 4 4 4 3 4
6 3 7 6 5 2 4 3 4 4 6 6 8 11 11 12 12 10 8 7 7 7 8 9 9 8 8 8 9 9 9 8 7 6 6 5 4 4 5 7 6 5 4 5 5 5 5 4 3
2 5 5 5 5 5 4 2 7 8 7 9 11 12 12 12 12 11 10 10 8 9 9 9 10 9 8 8 8 9 9 9 9 7 7 6 4 4 6 5 5 5 5 6 5 5 4 4 4
5 10 8 5 5 5 4 4 7 5 4 7 9 12 12 12 11 11 11 11 10 10 9 9 10 9 9 9 8 7 8 7 6 6 6 6 5 5 6 6 6 6 7 6 5 4 4 3 3
7 6 10 7 2 1 4 4 6 4 7 7 9 11 11 11 12 11 10 9 9 9 9 10 10 8 9 9 8 7 7 7 7 6 5 5 5 5 6 6 6 6 6 5 5 4 4 3 3
10 9 7 6 4 2 4 3 4 3 5 7 9 10 9 9 10 10 10 9 8 8 7 8 8 9 8 8 8 7 7 7 7 6 6 5 6 5 6 6 6 6 5 5 5 4 3 4 3
4 5 6 6 6 6 3 6 6 9 10 11 10 10 10 10 11 10 8 8 8 8 8 8 8 7 7 7 7 6 6 6 6 5 6 5 5 5 5 6 5 5 5 5 4 4 4 4 3
8 9 9 6 5 6 5 6 4 7 8 9 10 10 10 10 9 10 10 9 8 8 8 8 7 7 7 7 6 6 5 5 5 4 4 5 5 4 5 4 5 5 5 4 5 5 4 4 4
Wind_Direction
251 245 175 91 47 39 46 75 93 84 66 68 78 84 82 66 106 132 131 136 134 137 141 140 137 134 131 128 125 123 120 117 114 112 111 110 110 112 113 114 116 117 117 117 116 115 115 114 115
263 253 57 47 60 43 49 95 91 97 117 106 88 86 78 70 88 109 121 137 135 136 139 141 139 137 135 132 130 128 126 123 120 118 117 116 116 117 117 117 118 119 119 119 118 117 117 116 116
267 58 68 55 59 155 128 101 108 108 112 105 94 74 80 109 114 120 139 138 132 134 138 143 141 140 139 137 135 133 131 129 126 124 122 121 121 120 120 120 121 121 121 120 120 119 119 118 117
34 42 49 53 301 232 198 151 107 99 78 75 94 73 68 115 127 134 138 138 133 133 137 143 142 142 142 140 138 137 135 132 129 128 127 125 124 123 123 123 124 123 123 122 122 121 119 117 116
63 66 43 356 286 273 206 153 125 106 98 81 90 88 50 53 121 132 139 139 136 136 139 143 144 144 144 143 142 141 138 135 132 131 130 127 126 126 125 125 127 127 126 125 124 122 119 117 115
57 71 64 316 299 298 191 137 112 105 115 111 103 99 73 120 129 138 140 139 139 139 139 144 146 146 146 146 144 143 141 138 137 136 134 132 131 131 130 129 130 131 130 128 127 123 119 113 110
115 97 167 253 288 308 179 144 121 124 129 138 126 105 118 137 138 139 137 134 137 139 140 143 147 149 148 148 147 145 144 142 141 139 138 138 137 136 136 135 135 135 134 132 130 126 122 116 109
145 104 254 252 238 262 205 132 122 130 128 129 126 131 155 157 139 135 133 133 136 141 144 143 144 146 146 148 149 148 147 146 145 144 143 142 142 141 140 140 140 139 139 138 135 132 127 119 109
122 91 238 234 225 238 187 118 113 95 112 113 121 144 152 144 137 135 133 135 141 146 148 146 144 144 144 148 152 151 150 151 149 149 147 142 139 141 142 146 146 145 144 143 141 138 132 121 108
126 173 229 228 224 227 188 135 142 111 109 102 93 111 135 141 143 146 149 151 153 157 158 156 152 150 151 153 147 150 150 151 149 148 145 144 145 149 151 154 152 152 150 149 149 148 140 122 108
180 206 243 260 252 232 198 144 146 130 144 162 150 146 149 148 150 155 158 159 161 161 161 163 161 159 160 147 148 149 147 150 153 155 155 154 154 154 149 151 153 154 155 154 159 157 155 137 136
243 252 250 258 262 247 178 145 133 151 175 164 153 151 154 156 161 163 165 163 161 163 166 167 166 162 161 151 155 156 154 159 162 166 164 154 148 147 150 151 157 161 163 164 167 173 189 190 161
269 269 273 265 280 261 156 124 127 133 130 137 140 145 154 161 162 162 163 163 162 167 169 170 165 161 159 153 159 162 164 168 169 167 166 161 155 156 159 163 171 180 178 177 184 193 196 182 166
277 297 297 278 286 258 132 102 107 144 136 139 143 150 162 166 164 158 158 162 170 170 168 166 164 164 159 159 162 164 169 171 168 169 170 168 166 161 158 162 176 189 191 192 193 191 175 169 156
319 322 317 291 269 238 96 12 163 157 141 144 151 158 165 174 171 167 168 168 170 170 166 165 162 163 161 162 165 164 169 169 167 170 171 168 165 161 159 158 171 189 187 177 175 176 154 152 156
345 344 312 291 272 243 131 217 201 159 148 150 156 163 172 180 181 171 165 166 167 164 163 166 166 164 163 159 158 159 164 165 169 167 167 166 164 164 157 156 171 184 174 160 152 149 135 143 152
347 308 287 293 275 216 152 200 197 162 153 157 163 166 170 172 176 169 165 166 166 162 161 162 157 163 163 159 155 151 155 162 166 163 165 167 167 164 157 158 170 173 153 147 159 144 144 154 171
256 277 287 286 291 164 168 191 181 164 159 162 164 163 168 175 178 167 161 160 159 159 157 157 158 160 158 155 145 134 140 160 163 163 168 167 168 164 156 158 169 162 140 140 145 142 139 157 166
261 280 286 287 291 94 176 175 186 175 162 162 164 160 170 174 167 159 156 155 153 156 157 160 161 161 159 159 154 147 157 166 167 173 170 168 168 164 156 162 164 155 156 164 156 139 135 143 127
263 272 281 292 308 24 143 179 190 181 178 171 167 163 166 156 149 152 152 154 158 161 160 163 166 166 168 167 162 158 155 161 169 171 168 172 172 171 167 161 166 160 151 151 152 141 138 139 134
268 254 261 278 323 16 64 357 336 197 154 160 165 162 163 162 160 159 159 160 161 165 168 171 171 169 170 163 145 131 117 108 136 164 170 180 177 175 167 166 164 164 158 164 168 157 148 159 184
262 259 261 293 6 315 54 307 291 228 172 172 165 163 165 163 161 162 162 164 169 172 170 170 170 169 168 162 159 158 162 169 183 177 177 179 174 173 171 167 167 165 164 174 181 163 154 149 167
234 253 278 309 82 356 1 104 285 317 183 198 176 172 170 168 165 166 168 171 169 168 169 169 168 170 169 166 166 164 168 171 165 158 167 176 180 175 172 171 164 167 172 177 172 155 156 159 163
229 19 21 40 63 346 274 156 272 246 213 192 176 169 166 165 164 161 160 161 162 165 168 166 166 172 171 168 168 171 171 165 161 168 174 177 183 183 181 174 171 173 176 183 182 170 165 169 160
125 85 25 354 4 258 274 173 243 246 212 176 169 166 162 162 160 158 161 167 171 172 171 168 167 171 172 171 175 177 175 170 173 178 181 179 184 191 193 182 179 181 184 187 181 173 176 172 169
187 142 159 198 224 277 324 231 261 261 181 149 150 153 152 155 161 166 170 173 176 175 171 169 171 171 174 177 180 178 174 173 177 182 183 187 193 199 190 182 184 187 186 186 176 175 182 174 179
175 175 169 145 179 289 297 299 326 20 93 120 136 143 153 160 165 169 169 168 172 172 173 174 174 174 179 182 180 175 173 173 179 184 186 191 195 199 190 186 188 190 184 179 169 175 182 169 177
172 161 107 125 161 232 291 275 230 217 141 143 151 156 156 158 162 165 166 164 165 168 167 168 174 180 183 181 179 177 177 179 180 183 191 197 196 190 181 186 184 183 183 180 172 175 179 176 188
175 153 133 138 156 158 215 264 224 185 168 159 163 162 156 160 165 164 166 166 163 161 161 166 173 175 177 175 173 170 173 176 175 185 195 190 183 176 174 180 179 178 179 177 172 181 178 179 189
182 183 154 160 209 165 168 256 261 175 164 158 154 149 154 163 162 160 164 164 164 164 166 169 171 173 173 166 161 163 164 163 166 175 185 178 174 169 170 168 171 178 176 175 176 184 178 171 170
Height
1506 1505 1503 1503 1506 1514 1513 1502 1494 1493 1495 1495 1495 1497 1501 1505 1510 1519 1516 1518 1521 1524 1527 1530 1532 1534 1535 1537 1538 1540 1541 1542 1543 1544 1545 1546 1547 1548 1549 1550 1551 1552 1552 1553 1554 1555 1555 1556 1557
1507 1505 1505 1505 1515 1527 1516 1500 1497 1495 1496 1496 1498 1500 1502 1507 1509 1512 1515 1520 1522 1525 1528 1530 1533 1535 1536 1538 1540 1541 1542 1543 1545 1546 1547 1548 1549 1550 1550 1551 1552 1553 1554 1555 1556 1557 1558 1559 1559
1508 1506 1507 1510 1520 1525 1514 1499 1496 1496 1496 1496 1499 1502 1505 1509 1511 1513 1516 1520 1523 1526 1529 1531 1533 1535 1537 1539 1541 1542 1544 1545 1546 1547 1548 1549 1550 1551 1552 1553 1554 1555 1556 1557 1558 1559 1560 1561 1562
1508 1508 1509 1516 1520 1511 1504 1499 1497 1498 1498 1498 1500 1505 1508 1511 1511 1513 1517 1521 1524 1527 1529 1532 1534 1536 1538 1540 1541 1543 1544 1546 1547 1548 1549 1550 1551 1552 1553 1554 1555 1557 1558 1559 1560 1561 1562 1563 1564
1509 1509 1517 1522 1516 1505 1498 1496 1496 1497 1499 1502 1501 1507 1510 1512 1512 1515 1518 1521 1524 1527 1530 1532 1535 1537 1539 1540 1542 1544 1545 1547 1548 1549 1551 1552 1553 1554 1555 1556 1557 1558 1559 1561 1562 1563 1564 1565 1566
1510 1511 1526 1528 1515 1502 1497 1495 1496 1498 1500 1502 1504 1508 1513 1513 1513 1516 1519 1522 1525 1527 1530 1533 1535 1537 1539 1541 1543 1545 1546 1548 1549 1550 1552 1553 1554 1555 1556 1557 1559 1560 1561 1563 1564 1565 1566 1568 1569
1511 1515 1523 1521 1515 1504 1497 1494 1494 1497 1499 1501 1503 1508 1514 1516 1516 1517 1520 1523 1526 1528 1530 1532 1535 1537 1539 1541 1543 1545 1547 1549 1550 1552 1553 1554 1555 1556 1557 1559 1560 1561 1563 1564 1566 1567 1568 1570 1571
1509 1515 1520 1518 1513 1505 1495 1494 1495 1496 1499 1501 1502 1506 1512 1515 1517 1519 1521 1524 1526 1528 1530 1533 1535 1537 1539 1541 1544 1546 1548 1549 1551 1553 1554 1555 1557 1558 1559 1560 1562 1563 1564 1566 1567 1569 1570 1571 1573
1509 1519 1523 1514 1507 1501 1494 1494 1496 1496 1497 1500 1502 1503 1507 1513 1517 1519 1521 1524 1526 1528 1530 1532 1534 1537 1539 1541 1543 1546 1548 1550 1552 1553 1555 1556 1558 1559 1560 1562 1563 1565 1566 1567 1569 1570 1572 1573 1574
1507 1519 1511 1500 1496 1494 1492 1493 1494 1497 1498 1501 1502 1504 1509 1513 1515 1517 1518 1521 1524 1527 1529 1532 1534 1536 1539 1541 1543 1545 1548 1550 1552 1554 1555 1557 1559 1560 1561 1563 1564 1566 1567 1569 1570 1572 1573 1575 1576
1504 1507 1499 1494 1491 1491 1491 1491 1492 1495 1498 1498 1500 1503 1508 1511 1514 1516 1518 1520 1523 1526 1528 1531 1534 1536 1538 1540 1543 1545 1548 1550 1552 1554 1556 1558 1559 1561 1562 1564 1566 1567 1569 1570 1572 1573 1575 1576 1577
1501 1497 1494 1492 1489 1489 1489 1490 1492 1492 1494 1495 1498 1501 1505 1509 1512 1514 1516 1519 1522 1525 1527 1530 1533 1535 1538 1540 1543 1545 1548 1550 1552 1554 1556 1558 1560 1561 1563 1565 1567 1568 1570 1571 1573 1574 1576 1577 1578
1498 1494 1491 1490 1488 1488 1488 1488 1490 1492 1493 1497 1500 1504 1506 1509 1511 1513 1515 1518 1521 1523 1526 1529 1531 1534 1537 1540 1542 1545 1548 1550 1552 1554 1556 1558 1560 1562 1564 1565 1567 1569 1571 1572 1574 1575 1576 1577 1578
1495 1493 1489 1487 1486 1486 1487 1489 1490 1493 1494 1497 1500 1504 1507 1508 1510 1513 1514 1517 1519 1522 1524 1527 1530 1533 1536 1539 1542 1544 1547 1550 1552 1554 1556 1558 1560 1562 1564 1566 1567 1569 1571 1573 1574 1575 1577 1578 1578
1494 1493 1489 1484 1483 1485 1487 1493 1491 1492 1494 1497 1499 1502 1505 1508 1510 1511 1512 1514 1517 1520 1522 1525 1528 1531 1534 1538 1541 1544 1547 1549 1551 1554 1556 1558 1560 1562 1564 1565 1567 1569 1571 1573 1574 1576 1577 1578 1579
1495 1498 1501 1487 1482 1482 1490 1502 1491 1492 1493 1496 1499 1501 1503 1505 1509 1509 1512 1514 1516 1518 1521 1523 1526 1529 1533 1536 1540 1543 1546 1548 1551 1553 1556 1558 1560 1562 1563 1565 1567 1569 1571 1572 1574 1575 1576 1578 1579
1505 1511 1506 1493 1480 1480 1487 1495 1489 1490 1491 1494 1496 1499 1501 1504 1507 1509 1510 1512 1514 1516 1519 1521 1525 1528 1532 1535 1539 1542 1545 1547 1550 1553 1555 1557 1559 1561 1563 1565 1567 1569 1570 1572 1573 1575 1576 1577 1579
1515 1510 1504 1497 1482 1481 1487 1490 1487 1488 1489 1491 1494 1497 1500 1502 1504 1507 1509 1511 1513 1515 1517 1520 1523 1527 1531 1534 1538 1541 1544 1547 1550 1552 1554 1556 1559 1560 1563 1564 1566 1568 1570 1571 1573 1574 1576 1577 1578
1504 1506 1504 1493 1480 1482 1487 1489 1488 1487 1488 1490 1492 1495 1499 1502 1504 1506 1508 1509 1512 1514 1517 1519 1522 1526 1529 1533 1536 1539 1542 1545 1548 1551 1553 1555 1557 1560 1562 1564 1565 1567 1569 1570 1572 1573 1575 1576 1577
1501 1504 1501 1490 1480 1484 1489 1490 1486 1486 1486 1487 1489 1492 1496 1500 1503 1505 1507 1509 1511 1513 1515 1518 1521 1524 1527 1531 1535 1538 1541 1544 1547 1550 1552 1554 1556 1558 1560 1562 1564 1566 1568 1569 1571 1572 1573 1575 1576
1498 1500 1496 1492 1485 1486 1491 1499 1493 1488 1487 1488 1489 1491 1495 1497 1500 1503 1505 1507 1510 1512 1514 1517 1520 1523 1526 1530 1534 1537 1540 1543 1545 1547 1550 1552 1555 1557 1559 1561 1563 1565 1566 1568 1569 1571 1572 1573 1575
1500 1486 1485 1486 1496 1506 1498 1519 1502 1493 1491 1489 1490 1492 1494 1497 1499 1501 1504 1506 1509 1511 1514 1517 1520 1522 1526 1529 1532 1535 1537 1540 1542 1545 1548 1550 1553 1555 1557 1559 1561 1563 1565 1566 1568 1569 1570 1572 1573
1487 1478 1481 1485 1495 1507 1505 1515 1510 1496 1496 1492 1490 1491 1493 1496 1498 1500 1503 1506 1508 1511 1514 1516 1519 1522 1525 1527 1531 1534 1536 1538 1541 1543 1546 1548 1551 1553 1555 1557 1559 1561 1563 1564 1566 1567 1569 1570 1571
1475 1480 1488 1497 1507 1523 1511 1515 1515 1502 1493 1490 1490 1490 1492 1495 1498 1501 1504 1507 1509 1511 1513 1515 1517 1520 1523 1526 1529 1531 1534 1536 1539 1541 1544 1546 1548 1551 1553 1555 1557 1559 1561 1562 1564 1565 1567 1568 1569
1478 1501 1523 1525 1534 1529 1509 1511 1510 1487 1481 1483 1486 1489 1491 1494 1498 1501 1504 1506 1508 1510 1512 1514 1516 1518 1521 1524 1527 1530 1532 1534 1537 1539 1541 1543 1546 1548 1550 1552 1554 1556 1558 1560 1561 1563 1564 1565 1567
1481 1497 1524 1535 1536 1527 1511 1512 1498 1480 1477 1480 1484 1489 1491 1494 1497 1500 1503 1505 1507 1509 1512 1513 1515 1517 1520 1522 1525 1528 1530 1533 1535 1537 1539 1541 1543 1546 1548 1550 1552 1554 1556 1557 1559 1560 1561 1563 1564
1481 1491 1494 1515 1521 1527 1519 1505 1492 1481 1481 1484 1488 1491 1493 1495 1497 1499 1502 1505 1507 1509 1511 1512 1514 1516 1518 1520 1523 1525 1528 1530 1533 1535 1537 1539 1541 1544 1546 1548 1549 1551 1553 1554 1556 1557 1558 1560 1561
1468 1477 1499 1514 1529 1534 1522 1512 1507 1493 1489 1488 1490 1492 1493 1495 1497 1500 1502 1504 1506 1508 1510 1512 1513 1515 1517 1519 1521 1523 1526 1528 1531 1533 1535 1537 1539 1541 1543 1545 1547 1548 1550 1551 1553 1554 1555 1557 1558
1471 1477 1490 1507 1514 1528 1531 1518 1487 1486 1485 1486 1488 1490 1492 1495 1497 1499 1502 1504 1506 1508 1510 1511 1512 1514 1516 1518 1520 1521 1524 1527 1529 1531 1533 1535 1537 1539 1541 1543 1544 1546 1547 1548 1550 1551 1552 1554 1555
1462 1470 1485 1504 1509 1514 1521 1513 1478 1479 1481 1483 1486 1489 1492 1494 1496 1499 1501 1504 1506 1507 1509 1511 1512 1514 1515 1517 1519 1521 1523 1525 1527 1529 1531 1533 1535 1537 1538 1540 1541 1543 1544 1545 1546 1548 1549 1551 1552